STARLINK-11416, 62594

Orbit data source: Space-Track

STARLINK-11416, 62594 is a payload satellite owned by SpaceX/Seattle (US) in LEO that was launched on Mon, 13 Jan 2025 UTC via an FALCON 9 launch vehicle from the Air Force Eastern Test Range (AFETR). Payload-class satellites include a variety of spacecraft equipped with specific instruments for various scientific and technological missions. These include communications satellites like Starlink; space stations such as the ISS; scientific satellites like the Hubble; Earth observation satellites from companies like Planet Labs, Umbra, and HawkEye 360; GPS; miniature CubeSats for education and research; and military/defense satellites.

Loading next visibility...
Identifier
62594, 2025-008H
Orbit
LEO
Last TLE update
1 day ago
Origin
Manufacturer
SpaceX/Seattle
Mission
Operational Commercial Communications
Bus & Motor
STARLINK V2M, Unknown motor
Mass
730 kg wet, ~700 kg dry
Launch date (UTC)
2025-01-13 (4 months ago)
Launch vehicle
FALCON 9
Launch site
Air Force Eastern Test Range (AFETR)
Object type
Payload
Rocket body
Debris
Shape & HBR
Box + 2 Pan, 29 m
Radar Cross Section
36.964 m², Large (>1 m²)

Expand to show TLE details & history

TLE from 1 day ago
0 STARLINK-11416
1 62594U 25008H   25128.15802108  .00001174  00000-0  12648-4 0  9992
2 62594  42.9993 167.6270 0001576 261.2640  98.8050 15.70822995 19067
Epoch: 2025-05-08T03:47Z
Definitive object data (Epoch: 2025-05-08T03:47:33.021Z)
Latitude
0.00005°
Longitude
-115.49307°
Altitude
356.477 km
Speed
7.697 km/s
True Right ascension
11h 10m 30s
True Declination
0° 00' 00"
Sunlit
Object was in full shadow at TLE epoch
Visualization TLE readout
Latitude
-42.78613°
Longitude
138.4603°
Altitude
368.64 km
Speed
7.689 km/s
Apparent Right ascension
03h 33m 18s
Apparent Declination
-41° 30' 20"
Sunlit
Object is in daylight
Visualization observer readout
Local Sidereal Time
14:59:53
Azimuth
253.206° W
Elevation
-83.474°
Doppler factor
1
Orbital elements
Apogee altitude
359.587 km
Perigee altitude
357.464 km
Semi-major axis
6,736.662 km
Eccentricity
0.0001576
Inclination
42.9993°
RAAN
167.627°
Arg. of periapsis
261.264°
True anomaly
98.82285°
Mean anomaly
98.805°
Eccentric anomaly
98.81392°
Mean motion
3.92533 °/min
BSTAR
0.000012648
Orbital period
91.71 mins
Loading maneuver chart data...
Loading SW <> Apogee altitude chart data...
Loading historical data...
Loading historical data...
Loading historical data...
Loading historical data...
Loading historical data...
Loading historical data...
Loading historical data...

STARLINK-11416 Visibility forecast

Observer location: undefined°, undefined°

Span
Click to sort rows by Start time (UTC) header in descending order
Start Az.
Max El. time (UTC)
Max El. Az.
Max El.
End time (UTC)
End Az.
5 mins2025-05-09 07:32:59.490Z271.406° WNW2025-05-09 07:35:59.490Z17.288° NNE37.524°2025-05-09 07:37:59.490Z65.889° ENE
4 mins2025-05-09 10:46:59.490Z268.104° W2025-05-09 10:47:59.490Z222.435° SW38.496°2025-05-09 10:50:59.490Z125.8° SE
4 mins2025-05-10 06:25:59.490Z257.158° W2025-05-10 06:26:59.490Z294.362° NW44.563°2025-05-10 06:29:59.490Z71.076° E
|